Regional Weather Roundup
Issued by NWS

Home | Current Version | Previous Version | Text Only | Print | Product List | Glossary On
Versions: 1 2 3 4 5 6 7 8 9 10 11 12 13 14 15 16 17 18 19 20 21 22 23 24 25 26 27 28 29 30 31 32 33 34 35 36 37 38 39 40
000
ASUS43 KDMX 221407
RWRIA

WEATHER ROUNDUP FOR IOWA
NATIONAL WEATHER SERVICE DES MOINES IA
900 AM CDT WED OCT 22 2014

NOTE: "FAIR" INDICATES FEW OR NO CLOUDS BELOW 12,000 FEET WITH NO
SIGNIFICANT WEATHER AND/OR OBSTRUCTIONS TO VISIBILITY.

* - THESE STATIONS ARE NOT NWS STATIONS...THUS NOT UNDER NWS
QUALITY CONTROL.  THEY ALSO DO NOT REPORT WEATHER SUCH
AS PRECIPITATION OR FOG.

IAZ001>003-012>014-020>022-031>034-043>046-221500-
   NORTHWEST IOWA

CITY           SKY/WX    TMP DP  RH WIND       PRES   REMARKS
CARROLL *      CLOUDY    48  41  76 SE10G17   30.16S
CHEROKEE *     MOSUNNY   50  45  81 SE13G20   30.09S
DENISON *      SUNNY     54  45  71 S8G20     30.10S
LE MARS *      SUNNY     55  45  67 S14G23    30.05S
ORANGE CITY *  SUNNY     54  45  71 SE12      30.05S
SHELDON *      MOSUNNY   50  43  76 SE20G29   30.05R
SIOUX CITY     SUNNY     55  45  68 S12       30.06R
SPENCER        SUNNY     49  40  71 SE20G28   30.10F
STORM LAKE *   SUNNY     46  41  81 SE20G25   30.11F
$$

IAZ055>058-069>071-079>083-090>094-221500-
   SOUTHWEST IOWA

CITY           SKY/WX    TMP DP  RH WIND       PRES   REMARKS
ATLANTIC *     MOSUNNY   52  43  71 S10       30.16R
AUDUBON *      SUNNY     52  39  62 SE13      30.16S
CLARINDA *     SUNNY     54  45  71 SE8G14    30.19R
COUNCIL BLFS * MOSUNNY   54  46  76 SE16G22   30.10S
CRESTON *      CLOUDY    48  41  76 SE17      30.20R
HARLAN  *      SUNNY     54  45  71 SE13G18   30.17S
LAMONI         CLOUDY    48  41  76 SE10G20   30.23R
RED OAK *      MOSUNNY   54  45  71 SE9G17    30.16R
SHENANDOAH *   SUNNY     54  45  71 SE12      30.16R
$$

IAZ047>049-059>061-072>074-084-221500-
   CENTRAL IOWA

CITY           SKY/WX    TMP DP  RH WIND       PRES   REMARKS
AMES           SUNNY     43  39  86 SE14      30.23S
ANKENY *       MOSUNNY   45  41  87 SE13      30.24S
CHARITON *     SUNNY     45  41  87 SE13      30.24F
DES MOINES     MOSUNNY   46  39  76 SE9       30.24R
GRINNELL*      SUNNY     43  39  87 SE13      30.28S
KNOXVILLE *    SUNNY     45  39  81 SE9       30.24F
MARSHALLTOWN   SUNNY     42  39  89 SE13      30.26S
PELLA *        SUNNY     43  41  93 SE13      30.28S
PERRY *        CLOUDY    46  41  81 SE10      30.20S
$$

IAZ004>006-015-016-023>025-035-036-221500-
   NORTH CENTRAL IOWA

CITY           SKY/WX    TMP DP  RH WIND       PRES   REMARKS
ALGONA *       CLOUDY    46  39  76 S15G26    30.17S
CLARION *      PTSUNNY   43  41  93 SE13G23   30.20F
ESTHERVILLE    SUNNY     45  39  79 S21       30.12S
FORT DODGE *   CLOUDY    46  37  71 SE9G16    30.19S
MASON CITY     PTSUNNY   41  38  89 SE15G24   30.24S
FOREST CITY *  PTSUNNY   43  41  93 SE18      30.20F
IOWA FALLS *   CLOUDY    43  39  87 SE16G23   30.24F
$$

IAZ007>011-017>019-026>030-037>042-050>054-066-221500-
   NORTHEAST IOWA

CITY           SKY/WX    TMP DP  RH WIND       PRES   REMARKS
CEDAR RAPIDS   SUNNY     41  39  93 SE6       30.30S
CHARLES CITY * SUNNY     41  37  87 SE13      30.27F
CLINTON *      SUNNY     39  36  87 E7        30.36F WCI  34
DECORAH *      SUNNY     39  36  87 S6        30.29S WCI  35
DUBUQUE        SUNNY     40  37  89 S6        30.33R
MONTICELLO *   SUNNY     39  39 100 SE8       30.32S WCI  34
OELWEIN *      SUNNY     41  37  87 SE13      30.30S
WATERLOO       SUNNY     42  38  85 SE12      30.28S
$$

IAZ064-065-067-068-078-221500-
   EAST CENTRAL IOWA

CITY           SKY/WX    TMP DP  RH WIND       PRES   REMARKS
DAVENPORT      SUNNY     40  36  86 SE6       30.34R
IOWA CITY      SUNNY     41  38  89 SE7       30.33S
MT. PLEASANT * SUNNY     43  41  93 SE7       30.32R
MUSCATINE *    SUNNY     39  37  93 CALM      30.35R
QUAD CITIES    SUNNY     38  35  89 E5        30.34S WCI  34
$$

IAZ062-063-075>077-085>089-095>099-221500-
   SOUTHEAST IOWA

CITY           SKY/WX    TMP DP  RH WIND       PRES   REMARKS
BURLINGTON     SUNNY     43  39  86 E8        30.32R
FAIRFIELD *      N/A     43  39  87 SE7       30.31R
FORT MADISON * SUNNY     46  43  87 SE6       30.33R
KEOKUK *       SUNNY     45  41  87 SE8       30.31R
OSKALOOSA *      N/A     41  39  93 SE12      30.29S
CENTERVILLE *  SUNNY     45  41  87 SE8       30.28S
WASHINGTON *   SUNNY     41  41 100 SE7       30.31S
$$

ABBREVIATIONS USED IN REMARKS
   TC - TEMPERATURES IN CELSIUS
  WCI - WIND CHILL INDEX
   HX - HEAT INDEX
  VSB - VISIBILITY
$$




USA.gov is the U.S. government's official web portal to all federal, state and local government web resources and services.